FW2422 Weather Reports


time (UTC)temp
C
wind
direction
speed
KPH
gust
KPH
rain 1hr
cm
rain 24hr
cm
rain mn
cm
humidity
%
barometer
mb
20260509103053 21 113 0.0 0.0 0.00 0.00 0.00 91 1008.7
20260509101553 21 112 0.0 0.0 0.00 0.00 0.00 91 1008.6
20260509100052 21 112 0.0 0.0 0.00 0.00 0.00 91 1008.3
20260509094551 20 262 0.0 3.2 0.00 0.00 0.00 91 1008.1
20260509084526 20 166 0.0 11.3 0.00 0.00 0.00 90 1007.3
20260509053041 21 139 0.0 0.0 0.00 0.00 0.00 84 1010.8
20260509051537 22 108 0.0 1.6 0.00 0.00 0.00 83 1009.9
20260509050053 22 117 1.6 4.8 0.00 0.00 0.00 82 1009.8
20260509044544 22 115 0.0 8.0 0.00 0.00 0.00 81 1009.5
20260509043035 22 128 1.6 4.8 0.00 0.00 0.00 81 1009.8
20260509041534 22 108 0.0 0.0 0.00 0.00 0.00 80 1010.3
20260509040032 22 108 0.0 0.0 0.00 0.00 0.00 80 1010.4
20260509034531 22 108 0.0 0.0 0.00 0.00 0.00 80 1010.0
20260509033032 22 108 0.0 0.0 0.00 0.00 0.00 80 1009.7
20260509031531 22 122 0.0 0.0 0.00 0.00 0.00 80 1009.8
20260509030037 22 180 0.0 0.0 0.00 0.00 0.00 79 1009.4
20260509024529 22 142 0.0 3.2 0.00 0.00 0.00 79 1009.2
20260509023036 22 149 0.0 6.4 0.00 0.00 0.00 78 1009.0
20260509021529 22 70 0.0 4.8 0.00 0.00 0.00 77 1008.8
20260509020028 22 94 0.0 3.2 0.00 0.00 0.00 77 1008.9
20260509014600 22 129 0.0 3.2 0.00 0.00 0.00 76 1009.0
20260509000040 23 188 0.0 6.4 0.00 0.00 0.00 72 1008.4
20260508193032 25 260 1.6 8.0 0.00 0.00 0.00 62 1010.7
20260508191528 24 104 3.2 11.3 0.00 0.00 0.00 61 1011.0
20260508190026 25 112 4.8 11.3 0.00 0.00 0.00 59 1011.1
20260508184531 26 148 0.0 8.0 0.00 0.00 0.00 59 1011.1
20260508183022 26 127 1.6 8.0 0.00 0.00 0.00 58 1011.2
20260508181527 26 129 3.2 9.7 0.00 0.00 0.00 58 1011.5
20260508180019 26 117 1.6 8.0 0.00 0.00 0.00 58 1011.6
20260508174516 25 123 0.0 8.0 0.00 0.00 0.00 57 1012.0
20260508173021 25 114 0.0 9.7 0.00 0.00 0.00 58 1012.2
20260508171517 24 90 0.0 6.4 0.00 0.00 0.00 59 1012.2
20260508170004 23 106 1.6 11.3 0.00 0.00 0.00 60 1012.9
20260508164601 23 171 3.2 8.0 0.00 0.00 0.00 59 1013.4
20260508163102 23 109 3.2 9.7 0.00 0.00 0.00 60 1013.4
20260508161604 22 148 0.0 8.0 0.00 0.00 0.00 62 1013.6
20260508160056 22 160 0.0 11.3 0.00 0.00 0.00 62 1013.7
20260508154549 22 129 3.2 12.9 0.00 0.00 0.00 63 1014.0
20260508153052 21 136 0.0 4.8 0.00 0.00 0.00 66 1014.1
20260508151546 21 93 0.0 9.7 0.00 0.00 0.00 64 1014.3
20260508150046 21 108 1.6 6.4 0.00 0.00 0.00 63 1014.2
20260508144535 21 143 0.0 8.0 0.00 0.00 0.00 65 1014.1
20260508133105 18 57 1.6 8.0 0.00 0.00 0.00 71 1014.4
20260508131555 18 107 1.6 8.0 0.00 0.00 0.00 73 1014.7
20260508130052 18 90 0.0 0.0 0.00 0.00 0.00 76 1014.9
20260508124548 16 139 0.0 0.0 0.00 0.00 0.00 85 1014.9